| time (UTC) | temp C | wind direction | speed KPH | gust KPH | rain 1hr cm | rain 24hr cm | rain mn cm | humidity % | barometer mb |
| 20260507124903 | 14 | 298 | 3.2 | 4.8 | 0.00 | 0.00 | 0.00 | 58 | 1014.2 |
| 20260507114903 | 15 | 30 | 3.2 | 3.2 | 0.00 | 0.00 | 0.00 | 52 | 1013.9 |
| 20260507104903 | 13 | 152 | 9.7 | 8.0 | 0.00 | 0.00 | 0.00 | 57 | 1014.3 |
| 20260507084903 | 11 | 91 | 4.8 | 3.2 | 0.00 | 0.00 | 0.00 | 72 | 1014.5 |
| 20260507074903 | 11 | 50 | 0.0 | 0.0 | 0.00 | 0.00 | 0.00 | 77 | 1014.2 |
| 20260507064904 | 10 | 34 | 1.6 | 1.6 | 0.00 | 0.00 | 0.00 | 81 | 1013.9 |
| 20260507054903 | 8 | 152 | 3.2 | 3.2 | 0.00 | 0.00 | 0.00 | 93 | 1013.5 |
| 20260507044903 | 7 | 147 | 3.2 | 3.2 | 0.00 | 0.00 | 0.00 | 95 | 1013.1 |
| 20260507034903 | 7 | 165 | 1.6 | 1.6 | 0.00 | 0.00 | 0.00 | 96 | 1012.7 |
| 20260507024904 | 8 | 161 | 1.6 | 0.0 | 0.10 | 0.00 | 0.00 | 95 | 1012.5 |
| 20260507014903 | 8 | 127 | 6.4 | 9.7 | 0.00 | 0.00 | 0.00 | 96 | 1012.1 |
| 20260506234903 | 8 | 135 | 3.2 | 3.2 | 0.00 | 0.00 | 0.00 | 94 | 1012.0 |
| 20260506224903 | 8 | 218 | 1.6 | 1.6 | 0.00 | 0.00 | 0.00 | 94 | 1011.9 |
| 20260506214903 | 8 | 150 | 3.2 | 3.2 | 0.00 | 0.00 | 0.00 | 94 | 1011.7 |
| 20260506204903 | 8 | 211 | 0.0 | 0.0 | 0.00 | 0.00 | 0.00 | 95 | 1011.6 |
| 20260506194903 | 7 | 180 | 1.6 | 1.6 | 0.00 | 0.00 | 0.00 | 95 | 1011.1 |
| 20260506184903 | 7 | 0 | 0.0 | 0.0 | 0.00 | 0.00 | 0.00 | 92 | 1010.5 |
| 20260506174903 | 8 | 250 | 1.6 | 4.8 | 0.00 | 0.00 | 0.00 | 90 | 1010.0 |
| 20260506164903 | 8 | 134 | 6.4 | 8.0 | 0.18 | 0.00 | 0.00 | 87 | 1010.0 |
| 20260506154903 | 10 | 216 | 1.6 | 1.6 | 0.05 | 0.00 | 0.00 | 74 | 1009.2 |
| 20260506144903 | 15 | 313 | 3.2 | 6.4 | 0.00 | 0.00 | 0.00 | 62 | 1007.1 |